Location: Bennemühlen
(52.5740°N, 9.7135°E)
Time: 18:41:45
(UTC+00:00)

ISS - Pass Details

Date: 23 January 2026
Orbit: 413 x 429 km, 51.6° (Epoch: 11 February)

Event Time Altitude Azimuth Distance (km) Brightness Sun altitude
Rises 17:39:31 0° 276° (W) 2,365 1.5 -16.2°
Reaches altitude 10° 17:41:37 10° 274° (W) 1,503 0.3 -16.5°
Maximum altitude 17:44:57 65° 192° (SSW) 467 -3.5 -17.0°
Enters shadow 17:46:00 39° 125° (SE) 646 -3.2 -17.2°
